• In Hungary
  • List of Countries
  • For 7 days
  • Water Temperature
  • Satellite Maps
  • Weather Map
  • News
  • Weather Widgets
  • user-avatar
    Login

    Hourly Weather Bisceglie

    Today, 17 January, Wednesday

    Time Temperature Precipitation Wind Pressure Humidity
    00:00 +10°C° 0 mm 7 mps 756 mmHg 76%
    01:00 +10°C° 0 mm 6 mps 756 mmHg 77%
    02:00 +11°C° 0 mm 7 mps 755 mmHg 76%
    03:00 +11°C° 0 mm 7 mps 754 mmHg 76%
    04:00 +11°C° 0 mm 8 mps 753 mmHg 76%
    05:00 +11°C° 0 mm 8 mps 753 mmHg 76%
    06:00 +11°C° 0 mm 8 mps 752 mmHg 76%
    07:00 +11°C° 0 mm 9 mps 752 mmHg 76%
    08:00 +12°C° 0 mm 10 mps 751 mmHg 71%
    09:00 +14°C° 0 mm 11 mps 751 mmHg 66%
    10:00 +15°C° 0 mm 12 mps 751 mmHg 61%
    11:00 +15°C° 0 mm 12 mps 750 mmHg 59%
    12:00 +17°C° 0 mm 12 mps 750 mmHg 56%
    13:00 +17°C° 0 mm 12 mps 749 mmHg 54%
    14:00 +16°C° 0.1 mm 11 mps 749 mmHg 53%
    15:00 +14°C° 0.1 mm 11 mps 749 mmHg 52%
    16:00 +13°C° 0.1 mm 11 mps 750 mmHg 51%
    17:00 +12°C° 0.1 mm 11 mps 750 mmHg 51%
    18:00 +12°C° 0.1 mm 11 mps 751 mmHg 52%
    19:00 +10°C° 0.1 mm 12 mps 752 mmHg 52%
    20:00 +9°C° 0.1 mm 12 mps 753 mmHg 50%
    21:00 +8°C° 0.1 mm 12 mps 754 mmHg 48%
    22:00 +7°C° 0.1 mm 12 mps 755 mmHg 45%
    23:00 +7°C° 0.2 mm 11 mps 756 mmHg 47%

    Tomorrow, 18 January, Thursday

    Time Temperature Precipitation Wind Pressure Humidity
    00:00 +6°C° 0.2 mm 11 mps 757 mmHg 49%
    01:00 +6°C° 0.2 mm 10 mps 758 mmHg 51%
    02:00 +6°C° 0 mm 9 mps 758 mmHg 50%
    03:00 +5°C° 0 mm 8 mps 759 mmHg 48%
    04:00 +5°C° 0 mm 7 mps 760 mmHg 47%
    05:00 +5°C° 0 mm 8 mps 761 mmHg 45%
    06:00 +5°C° 0 mm 8 mps 761 mmHg 43%
    07:00 +5°C° 0 mm 8 mps 762 mmHg 42%
    08:00 +6°C° 0 mm 8 mps 763 mmHg 38%
    09:00 +8°C° 0 mm 7 mps 763 mmHg 34%
    10:00 +9°C° 0 mm 7 mps 764 mmHg 30%
    11:00 +10°C° 0 mm 6 mps 763 mmHg 27%
    12:00 +12°C° 0 mm 5 mps 763 mmHg 25%
    13:00 +13°C° 0 mm 4 mps 763 mmHg 23%
    14:00 +12°C° 0 mm 4 mps 763 mmHg 26%
    15:00 +12°C° 0 mm 3 mps 763 mmHg 28%
    16:00 +12°C° 0 mm 3 mps 763 mmHg 31%
    17:00 +11°C° 0 mm 4 mps 763 mmHg 34%
    18:00 +10°C° 0 mm 4 mps 763 mmHg 37%
    19:00 +7°C° 0 mm 5 mps 763 mmHg 39%
    20:00 +7°C° 0 mm 5 mps 762 mmHg 43%
    21:00 +7°C° 0 mm 6 mps 762 mmHg 46%
    22:00 +5°C° 0 mm 6 mps 762 mmHg 49%
    23:00 +5°C° 0 mm 6 mps 762 mmHg 51%

    Day after tomorrow, 19 January, Friday

    Time Temperature Precipitation Wind Pressure Humidity
    00:00 +5°C° 0 mm 6 mps 761 mmHg 53%
    01:00 +5°C° 0 mm 6 mps 761 mmHg 55%
    02:00 +5°C° 0 mm 6 mps 761 mmHg 59%
    03:00 +5°C° 0 mm 6 mps 760 mmHg 62%
    04:00 +5°C° 0 mm 6 mps 760 mmHg 66%
    05:00 +7°C° 0 mm 6 mps 760 mmHg 69%
    06:00 +7°C° 0 mm 6 mps 759 mmHg 72%
    07:00 +7°C° 0 mm 6 mps 759 mmHg 75%
    08:00 +8°C° 0 mm 6 mps 759 mmHg 71%
    09:00 +10°C° 0 mm 7 mps 759 mmHg 68%
    10:00 +12°C° 0 mm 7 mps 759 mmHg 64%
    11:00 +14°C° 0 mm 7 mps 759 mmHg 61%
    12:00 +15°C° 0 mm 7 mps 758 mmHg 59%
    13:00 +16°C° 0 mm 6 mps 758 mmHg 56%
    14:00 +15°C° 0 mm 6 mps 758 mmHg 58%
    15:00 +15°C° 0 mm 6 mps 757 mmHg 61%
    16:00 +14°C° 0 mm 5 mps 757 mmHg 64%
    17:00 +13°C° 0 mm 6 mps 757 mmHg 67%
    18:00 +13°C° 0 mm 6 mps 757 mmHg 70%
    19:00 +11°C° 0 mm 7 mps 756 mmHg 74%
    20:00 +11°C° 0 mm 7 mps 756 mmHg 74%
    21:00 +11°C° 0 mm 7 mps 756 mmHg 74%
    22:00 +11°C° 0 mm 7 mps 756 mmHg 74%
    23:00 +11°C° 0 mm 7 mps 756 mmHg 74%

    20 January, Saturday

    Time Temperature Precipitation Wind Pressure Humidity
    00:00 +11°C° 0 mm 7 mps 755 mmHg 75%
    01:00 +11°C° 0 mm 7 mps 755 mmHg 75%
    02:00 +11°C° 0 mm 7 mps 754 mmHg 75%
    03:00 +11°C° 0 mm 7 mps 754 mmHg 75%
    04:00 +11°C° 0 mm 7 mps 754 mmHg 76%
    05:00 +10°C° 0 mm 7 mps 754 mmHg 76%
    06:00 +10°C° 0 mm 8 mps 754 mmHg 77%
    07:00 +10°C° 0 mm 8 mps 754 mmHg 77%
    08:00 +11°C° 0 mm 8 mps 754 mmHg 71%
    09:00 +12°C° 0 mm 8 mps 754 mmHg 66%
    10:00 +12°C° 0 mm 7 mps 754 mmHg 60%
    11:00 +13°C° 0.1 mm 8 mps 753 mmHg 55%
    12:00 +13°C° 0.1 mm 8 mps 753 mmHg 50%
    13:00 +13°C° 0.1 mm 8 mps 753 mmHg 45%
    14:00 +12°C° 0.4 mm 8 mps 753 mmHg 47%
    15:00 +12°C° 0.4 mm 9 mps 753 mmHg 49%
    16:00 +11°C° 0.4 mm 9 mps 753 mmHg 52%
    17:00 +10°C° 0.2 mm 9 mps 753 mmHg 57%
    18:00 +9°C° 0.2 mm 8 mps 754 mmHg 63%
    19:00 +7°C° 0.2 mm 8 mps 755 mmHg 69%
    20:00 +6°C° 0 mm 7 mps 755 mmHg 70%
    21:00 +5°C° 0 mm 7 mps 755 mmHg 71%
    22:00 +5°C° 0 mm 6 mps 756 mmHg 72%
    23:00 +5°C° 0 mm 6 mps 756 mmHg 71%

    21 January, Sunday

    Time Temperature Precipitation Wind Pressure Humidity
    00:00 +6°C° 0 mm 5 mps 756 mmHg 71%
    01:00 +6°C° 0 mm 4 mps 756 mmHg 71%
    02:00 +6°C° 0 mm 4 mps 755 mmHg 70%
    03:00 +7°C° 0 mm 3 mps 755 mmHg 69%
    04:00 +7°C° 0 mm 2 mps 754 mmHg 68%
    05:00 +7°C° 0.3 mm 2 mps 754 mmHg 69%
    06:00 +7°C° 0.3 mm 2 mps 754 mmHg 70%
    07:00 +5°C° 0.3 mm 3 mps 753 mmHg 71%
    08:00 +5°C° 1.9 mm 4 mps 753 mmHg 75%
    09:00 +4°C° 1.9 mm 6 mps 753 mmHg 80%
    10:00 +4°C° 1.9 mm 7 mps 753 mmHg 84%
    11:00 +4°C° 1.1 mm 8 mps 753 mmHg 82%
    12:00 +4°C° 1.1 mm 8 mps 754 mmHg 80%
    13:00 +5°C° 1.1 mm 9 mps 754 mmHg 78%
    14:00 +5°C° 0.4 mm 9 mps 755 mmHg 76%
    15:00 +5°C° 0.4 mm 9 mps 755 mmHg 75%
    16:00 +5°C° 0.4 mm 9 mps 756 mmHg 73%
    17:00 +5°C° 0 mm 9 mps 757 mmHg 71%
    18:00 +3°C° 0 mm 9 mps 758 mmHg 68%
    19:00 +3°C° 0 mm 9 mps 759 mmHg 65%
    20:00 +2°C° 0 mm 9 mps 760 mmHg 65%
    21:00 +2°C° 0 mm 9 mps 760 mmHg 65%
    22:00 +2°C° 0 mm 8 mps 761 mmHg 65%
    23:00 +2°C° 0 mm 8 mps 761 mmHg 66%

    22 January, Monday

    Time Temperature Precipitation Wind Pressure Humidity
    00:00 +1°C° 0 mm 8 mps 762 mmHg 67%
    01:00 +1°C° 0 mm 8 mps 762 mmHg 67%
    02:00 +2°C° 0 mm 7 mps 762 mmHg 68%
    03:00 0°C° 0 mm 7 mps 762 mmHg 69%
    04:00 +1°C° 0 mm 6 mps 763 mmHg 69%
    05:00 +1°C° 0 mm 6 mps 763 mmHg 70%
    06:00 +1°C° 0 mm 5 mps 763 mmHg 71%
    07:00 +1°C° 0 mm 5 mps 763 mmHg 71%
    08:00 +2°C° 0 mm 5 mps 763 mmHg 69%
    09:00 +3°C° 0 mm 5 mps 763 mmHg 66%
    10:00 +5°C° 0 mm 4 mps 764 mmHg 64%
    11:00 +6°C° 0 mm 4 mps 763 mmHg 62%
    12:00 +7°C° 0 mm 4 mps 763 mmHg 60%
    13:00 +8°C° 0 mm 3 mps 763 mmHg 57%
    14:00 +8°C° 0 mm 3 mps 763 mmHg 58%
    15:00 +8°C° 0 mm 2 mps 763 mmHg 59%
    16:00 +8°C° 0 mm 2 mps 763 mmHg 60%
    17:00 +7°C° 0 mm 2 mps 763 mmHg 61%
    18:00 +6°C° 0 mm 2 mps 763 mmHg 62%
    19:00 +6°C° 0 mm 1 mps 763 mmHg 63%
    20:00 +6°C° 0 mm 1 mps 763 mmHg 63%
    21:00 +6°C° 0 mm 1 mps 764 mmHg 63%
    22:00 +6°C° 0 mm 1 mps 764 mmHg 63%
    23:00 +6°C° 0 mm 1 mps 764 mmHg 62%
    Show more